Dubuque, IA

8:21 PM CDT on April 19, 2018 (GMT -0500)
Dubuque Regional

Weather History for KDBQ - January, 2013

Change the Weather History Date:

Tuesday, January 22, 2013

  Actual Average Record
Temperature  
Mean Temperature 1 °F 19 °F  
Max Temperature 9 °F 27 °F 55 °F (2002)
Min Temperature -7 °F 11 °F -26 °F (1936)
Degree Days  
Heating Degree Days 64 46  
Month to date heating degree days 982 1012  
Since 1 July heating degree days 3662 3822  
Cooling Degree Days 0 0  
Month to date cooling degree days 0 0  
Year to date cooling degree days 0 0  
Moisture  
Dew Point -7 °F    
Average Humidity 69    
Maximum Humidity 82    
Minimum Humidity 55    
Precipitation  
Precipitation 0.00 in 0.04 in 1.72 in (1887)
Month to date precipitation 0.26 0.82  
Year to date precipitation 0.26 0.82  
Snow  
Snow 0.00 in 0.40 in - ()
Month to date snowfall 0.1 7.0  
Since 1 July snowfall 19.3 21.6  
Snow Depth T in    
Sea Level Pressure  
Sea Level Pressure 30.39 in    
Wind  
Wind Speed 10 mph (WNW)    
Max Wind Speed 18 mph    
Max Gust Speed 23 mph    
Visibility 10 miles    
Events      
T = Trace of Precipitation, MM = Missing Value Source: NWS Daily Summary

Daily Weather History Graph

Daily Weather History Graph

Search for Another Location

Airport or City:

Astronomy

Jan. 22, 2013 Rise Set
Actual Time 7:25 AM CST 5:04 PM CST
Civil Twilight 6:54 AM CST 5:34 PM CST
Nautical Twilight 6:20 AM CST 6:09 PM CST
Astronomical Twilight 5:47 AM CST 6:42 PM CST
Moon 1:26 PM CST (1/22) 3:47 AM CST (1/22)
Length of Visible Light 10h 40m
Length of Day
9h 39m
Waxing Gibbous, 83% of the Moon is Illuminated
Jan 22
Waxing Gibbous
Jan 26
Full
Feb 3
Last Quarter
Feb 10
New
Feb 17
First Quarter

Hourly Weather History & Observations

Time (CST) Temp. Windchill Dew Point Humidity Pressure Visibility Wind Dir Wind Speed Gust Speed Precip Events Conditions
12:53 AM -2.0 °F -21.9 °F -11.0 °F 66% 30.35 in 10.0 mi NW 15.0 mph 21.9 mph N/A   Clear
1:53 AM -2.9 °F -23.1 °F -11.9 °F 65% 30.38 in 10.0 mi NW 15.0 mph - N/A   Clear
2:53 AM -4.0 °F -21.2 °F -11.0 °F 72% 30.39 in 10.0 mi NNW 10.4 mph - N/A   Clear
3:53 AM -4.0 °F -23.0 °F -11.0 °F 72% 30.38 in 10.0 mi NNW 12.7 mph - N/A   Clear
4:53 AM -4.0 °F -19.0 °F -11.0 °F 72% 30.38 in 10.0 mi NW 8.1 mph - N/A   Clear
5:53 AM -5.1 °F -17.6 °F -11.0 °F 76% 30.39 in 10.0 mi WSW 5.8 mph - N/A   Clear
6:53 AM -5.1 °F -19.1 °F -9.9 °F 80% 30.41 in 10.0 mi West 6.9 mph - N/A   Clear
7:53 AM -4.0 °F -19.0 °F -9.0 °F 79% 30.42 in 10.0 mi West 8.1 mph - N/A   Clear
8:53 AM -0.9 °F -16.4 °F -7.1 °F 75% 30.43 in 10.0 mi West 9.2 mph - N/A   Clear
9:33 AM -0.4 °F -16.7 °F -7.6 °F 72% 30.34 in 9.0 mi NW 10.4 mph - N/A   Scattered Clouds
9:49 AM 1.4 °F -14.5 °F -7.6 °F 66% 30.34 in 10.0 mi WNW 10.4 mph - N/A   Scattered Clouds
9:53 AM 1.0 °F -15.8 °F -7.1 °F 69% 30.43 in 10.0 mi WNW 11.5 mph - N/A   Scattered Clouds
10:53 AM 3.0 °F -11.5 °F -7.1 °F 63% 30.44 in 10.0 mi WNW 9.2 mph - N/A   Clear
11:53 AM 5.0 °F -10.0 °F -6.0 °F 61% 30.42 in 10.0 mi West 10.4 mph - N/A   Clear
12:53 PM 7.0 °F -9.1 °F -6.0 °F 55% 30.41 in 10.0 mi West 12.7 mph - N/A   Clear
1:53 PM 8.1 °F -9.6 °F -6.0 °F 53% 30.40 in 10.0 mi WNW 16.1 mph - N/A   Clear
2:53 PM 8.1 °F -7.0 °F -6.0 °F 53% 30.40 in 10.0 mi WNW 11.5 mph - N/A   Clear
3:53 PM 8.1 °F -6.2 °F -6.0 °F 53% 30.40 in 10.0 mi WNW 10.4 mph - N/A   Clear
4:53 PM 8.1 °F -7.0 °F -5.1 °F 55% 30.38 in 10.0 mi WNW 11.5 mph - N/A   Overcast
5:53 PM 8.1 °F -4.3 °F -5.1 °F 55% 30.38 in 10.0 mi West 8.1 mph - N/A   Overcast
6:53 PM 8.1 °F -3.2 °F -4.0 °F 58% 30.39 in 10.0 mi WNW 6.9 mph - N/A   Overcast
7:53 PM 8.1 °F -2.0 °F -4.0 °F 58% 30.37 in 10.0 mi WNW 5.8 mph - N/A   Overcast
8:53 PM 8.1 °F -4.3 °F -4.0 °F 58% 30.38 in 10.0 mi WNW 8.1 mph - N/A   Overcast
9:53 PM 8.1 °F -2.0 °F -2.9 °F 61% 30.38 in 10.0 mi West 5.8 mph - N/A   Overcast
10:53 PM 9.0 °F -2.2 °F -2.9 °F 59% 30.38 in 10.0 mi West 6.9 mph - N/A   Overcast
11:53 PM 9.0 °F 0.6 °F -2.0 °F 61% 30.36 in 10.0 mi WSW 4.6 mph - N/A   Overcast